Starlink 3323

operational
NORAD ID: 50804 Int'l Des: 2022-001 Owner: SPXS Country: US Constellation: starlink
LEOCIRCULAR

Starlink 3323について

説明を読み込み中...

リアルタイム位置

3D地球を読み込み中...

次回通過

高度履歴

Altitude vs Time

uPlot chart will show altitude changes over time

軌道要素

1 50804U 22001B 25302.53359089 .00002449 00000-0 17195-3 0 9991
2 50804 53.2179 27.9015 0000899 92.5814 267.5281 15.08829551210744
Epoch: Oct 29, 2025 • Age: 15 hours

現在のステータス

高度 543.6 km
速度 7.60 km/s
衛星直下点 43.45°N, 19.36°W
打ち上げ日 Jan 6, 2022
運用期間 3.8 years
タイプ internet

技術仕様

分類 Payload
質量 297.00 kg
乾燥質量 275.00 kg
総質量 297.00 kg
長さ 0.20 m
直径 2.80 m
スパン 9.00 m
形状 Box + pan
製造者 SPXS
バスタイプ Starlink
フェーズステータス In Orbit
所有者/国 SPXS/US

大規模コンステレーション

Loading constellations...